Regional Weather Roundup
Issued by NWS

Home | Current Version | Previous Version | Text Only | Print | Product List | Glossary On
Versions: 1 2 3 4 5 6 7 8 9 10 11 12 13 14 15 16 17 18 19 20 21 22 23 24 25 26 27 28 29 30 31 32 33 34 35 36 37 38 39 40 41 42 43 44 45 46 47 48 49 50
000
ASCA44 KEWX 231920
RWRMX

LATIN AMERICA AND CARIBBEAN REGIONAL WEATHER ROUNDUP
NATIONAL WEATHER SERVICE AUSTIN/SAN ANTONIO TX
200 PM CDT SUN APR 23 2017

NOTE: "FAIR" INDICATED FEW OR NO CLOUDS BELOW 12,000 FEET WITH NO
SIGNIFICANT WEATHER AND/OR OBSTRUCTIONS TO VISIBILITY.

BAJA CALIFORNIA

CITY           SKY/WX    TMP DP  RH WIND       PRES   REMARKS
LORETO         SUNNY     86  59  39 S7        29.80F
LA PAZ         SUNNY     95  18   6 CALM      29.83F
MEXICALI       PTSUNNY   90  30  12 SE7       29.76F
S.J. DEL CABO  SUNNY     91  36  14 SE9       29.84S
TIJUANA        PTSUNNY   72  54  53 W10       29.93S

NORTHWESTERN MEXICO

CITY           SKY/WX    TMP DP  RH WIND       PRES   REMARKS
CULIACAN       PTSUNNY   86  64  48 W6        29.82S
DURANGO        MOSUNNY   81  25  12 NW6       30.14F
GUAYMAS        SUNNY     91  48  22 W12       29.77F
HERMOSILLO     SUNNY     97  28   9 S7        29.84F HX  91
CD. JUAREZ     SUNNY     72  37  28 E12       30.05F
LOS MOCHIS     SUNNY     88  52  29 SW9       29.85F
OBREGON        MOSUNNY   90  50  25 S7        29.80F

NORTHEASTERN MEXICO

CITY           SKY/WX    TMP DP  RH WIND       PRES   REMARKS
CHIHUAHUA      SUNNY     72  37  28 NE6       30.16F
MATAMOROS      PTSUNNY   70  48  46 N15       30.13F
MONCLOVA         N/A    N/A N/A N/A MISG        N/A
MONTERREY      MOSUNNY   75  41  29 N8        30.14F
NUEVO LAREDO   SUNNY     73  41  31 NW7       30.15F
PIEDRAS NEGRAS SUNNY     72  43  35 N7        30.17
REYNOSA        MOSUNNY   72  41  33 NW12      30.14F
SALTILLO       SUNNY     70  54  56 CALM      30.25F
TORREON        SUNNY     77  52  41 CALM      30.09F
CD. VICTORIA   MOSUNNY   70  52  52 NW21      30.14F

WESTERN MEXICO

CITY           SKY/WX    TMP DP  RH WIND       PRES   REMARKS
AGUASCALIENTES PTSUNNY   81  23  12 NE5       30.20F
COLIMA         MOSUNNY   82  61  47 SW12      29.94F
DEL BAJIO      MOSUNNY   81  34  18 N6        30.23F
GUADALAJARA    MOSUNNY   82  34  17 SE6       30.09F
MANZANILLO     MOSUNNY   79  72  78 S12       29.84F
MAZATLAN       MOSUNNY   84  64  51 NW7       29.82F
P. VALLARTA    SUNNY     81  70  69 SW13      29.82F
URUAPAN        CLOUDY    77  45  31 S12       30.11F
ZACATECAS      MOSUNNY   75  32  20 SE7       30.24F

CENTRAL MEXICO

CITY           SKY/WX    TMP DP  RH WIND       PRES   REMARKS
CUERNAVACA     CLOUDY    86  41  20 S12       30.04F
MEXICO CITY    MOSUNNY   72  28  20 N8        30.29F
MORELIA        PTSUNNY   79  39  24 CALM      30.17F
POZA RICA      PTSUNNY   90  68  48 E12       30.06F HX  93
PUEBLA         MOSUNNY   75  30  19 NE8       30.27F
QUERETARO      MOSUNNY   77  43  29 E18       30.26F
S. LUIS POTOSI MOSUNNY   73  37  27 E12       30.22F
TAMPICO        SUNNY     75  63  64 N17G29    30.06F
TOLUCA         PTSUNNY   72  36  26 NW8       30.33F

SOUTHERN MEXICO

CITY           SKY/WX    TMP DP  RH WIND       PRES   REMARKS
ACAPULCO       CLOUDY    84  70  61 S8        29.86F
B. DE HUATULCO   N/A    N/A N/A N/A MISG        N/A
OAXACA         CLOUDY    79  45  29 N3        30.15F
P. ESCONDIDO   SUNNY     81  70  69 S12       29.96F
VERACRUZ       MOSUNNY   84  70  61 NE15      29.99F
ZIHUATANEJO    PTSUNNY   84  66  54 SW12      29.86F

YUCATAN PENINSULA

CITY           SKY/WX    TMP DP  RH WIND       PRES   REMARKS
CAMPECHE       MOSUNNY   84  72  65 NW12G23   29.87F
CANCUN         MOSUNNY   86  72  62 NE9       29.85F HX  92
CHETUMAL       MOSUNNY   88  75  66 SE8       29.84F HX  97
CD. DEL CARMEN SUNNY     84  70  61 N12       29.93F
COZUMEL        MOSUNNY   86  70  58 NW5       29.84F HX  90
MERIDA         PTSUNNY   90  66  45 N13       29.89F HX  92
MINATITLAN     PTSUNNY   82  68  61 N12       29.94F
TAPACHULA      MOSUNNY   91  75  59 NW12      29.80F HX 102
TUX. GUTIERREZ MOSUNNY   90  61  37 W20       29.90F
VILLAHERMOSA   PTSUNNY   88  68  51 NW6       29.95F HX  91

CENTRAL AMERICA

CITY           SKY/WX    TMP DP  RH WIND       PRES   REMARKS
BELIZE CITY    MOSUNNY   88  79  74 E7        29.82F HX 102
MANAGUA        PTCLDY    97  64  34 NW12      29.74F HX  99

CARIBBEAN

CITY           SKY/WX    TMP DP  RH WIND       PRES   REMARKS
ARUBA          MOSUNNY   91  79  66 E22       29.74F HX 107
CURACAO        MOSUNNY   88  77  70 E16       29.77F HX 100
KINGSTON       MOSUNNY   82  73  74 SE8       29.80F
NASSAU         LGT RAIN  79  75  89 SE13G25   29.78F
SAN JUAN       MOSUNNY   84  73  70 E20       29.92F HX  91
SANTO DOMINGO  RAIN      79  77  94 SE12      29.86S
ST. CROIX      PTSUNNY   82  73  74 E14       29.94
ST. KITTS      PTSUNNY   81  72  74 E13       29.94S
ST. MAARTEN    PTSUNNY   81  70  69 E16       29.94S
ST. THOMAS     MOSUNNY   82  72  69 SE16G23   29.93F

$$





USA.gov is the U.S. government's official web portal to all federal, state and local government web resources and services.